| time (UTC) | temp F | wind direction | speed knots | gust knots | rain 1hr in | rain 24hr in | rain mn in | humidity % | barometer mb |
| 20260903122019 | 78 | 303 | 0.9 | 4.3 | 0.00 | 0.00 | 0.00 | 63 | 1016.9 |
| 20260903120903 | 77 | 254 | 1.7 | 7.0 | 0.00 | 0.00 | 0.00 | 63 | 1016.8 |
| 20260903120004 | 77 | 259 | 1.7 | 5.2 | 0.00 | 0.00 | 0.00 | 65 | 1016.7 |
| 20260903115403 | 77 | 236 | 1.7 | 6.1 | 0.00 | 0.00 | 0.00 | 66 | 1016.8 |
| 20260903113814 | 76 | 244 | 1.7 | 6.1 | 0.00 | 0.00 | 0.00 | 68 | 1016.9 |
| 20260903112705 | 75 | 250 | 1.7 | 6.1 | 0.00 | 0.00 | 0.00 | 69 | 1016.9 |
| 20260903111805 | 75 | 230 | 1.7 | 7.8 | 0.00 | 0.00 | 0.00 | 70 | 1017.0 |
| 20260903110905 | 75 | 221 | 1.7 | 7.0 | 0.00 | 0.00 | 0.00 | 70 | 1017.0 |
| 20260903110005 | 75 | 256 | 0.9 | 4.3 | 0.00 | 0.00 | 0.00 | 73 | 1017.0 |
| 20260903105403 | 74 | 255 | 1.7 | 4.3 | 0.00 | 0.00 | 0.00 | 72 | 1017.2 |
| 20260903104505 | 74 | 260 | 1.7 | 6.1 | 0.00 | 0.00 | 0.00 | 72 | 1017.2 |
| 20260903103603 | 74 | 253 | 1.7 | 6.1 | 0.00 | 0.00 | 0.00 | 71 | 1017.2 |
| 20260903102703 | 74 | 253 | 0.9 | 3.5 | 0.00 | 0.00 | 0.00 | 72 | 1017.2 |
| 20260903102015 | 73 | 251 | 0.9 | 7.0 | 0.00 | 0.00 | 0.00 | 73 | 1017.3 |
| 20260903100903 | 72 | 245 | 1.7 | 6.1 | 0.00 | 0.00 | 0.00 | 74 | 1017.1 |
| 20260903100017 | 71 | 256 | 0.9 | 3.5 | 0.00 | 0.00 | 0.00 | 77 | 1017.1 |
| 20260903095403 | 71 | 255 | 0.9 | 6.1 | 0.00 | 0.00 | 0.00 | 77 | 1017.3 |
| 20260903094505 | 70 | 255 | 0.9 | 6.1 | 0.00 | 0.00 | 0.00 | 77 | 1017.4 |
| 20260903093605 | 70 | 275 | 0.9 | 4.3 | 0.00 | 0.00 | 0.00 | 78 | 1017.4 |
| 20260903092705 | 70 | 250 | 0.9 | 4.3 | 0.00 | 0.00 | 0.00 | 78 | 1017.3 |
| 20260903091803 | 70 | 268 | 0.9 | 5.2 | 0.00 | 0.00 | 0.00 | 78 | 1017.4 |
| 20260903091113 | 70 | 250 | 0.9 | 4.3 | 0.00 | 0.00 | 0.00 | 78 | 1017.4 |
| 20260903090006 | 70 | 277 | 1.7 | 7.0 | 0.00 | 0.00 | 0.00 | 79 | 1017.1 |
| 20260903085403 | 70 | 262 | 1.7 | 6.1 | 0.00 | 0.00 | 0.00 | 80 | 1017.1 |
| 20260903084506 | 70 | 243 | 1.7 | 6.1 | 0.00 | 0.00 | 0.00 | 80 | 1017.0 |
| 20260903083605 | 69 | 248 | 0.9 | 6.1 | 0.00 | 0.00 | 0.00 | 81 | 1016.9 |
| 20260903082703 | 69 | 229 | 2.6 | 7.8 | 0.00 | 0.00 | 0.00 | 81 | 1016.6 |
| 20260903081805 | 69 | 253 | 1.7 | 10.4 | 0.00 | 0.00 | 0.00 | 82 | 1016.4 |
| 20260903080903 | 68 | 242 | 1.7 | 7.0 | 0.00 | 0.00 | 0.00 | 83 | 1016.2 |
| 20260903080005 | 68 | 235 | 2.6 | 7.8 | 0.00 | 0.00 | 0.00 | 83 | 1016.1 |
| 20260903075405 | 68 | 250 | 1.7 | 7.0 | 0.00 | 0.00 | 0.00 | 83 | 1016.1 |
| 20260903074505 | 68 | 243 | 1.7 | 7.0 | 0.00 | 0.00 | 0.00 | 84 | 1016.0 |
| 20260903073603 | 68 | 228 | 1.7 | 7.0 | 0.00 | 0.00 | 0.00 | 85 | 1016.0 |
| 20260903072705 | 67 | 238 | 1.7 | 9.6 | 0.00 | 0.00 | 0.00 | 85 | 1015.7 |
| 20260903071803 | 67 | 221 | 1.7 | 6.1 | 0.00 | 0.00 | 0.00 | 85 | 1015.4 |
| 20260903070905 | 67 | 196 | 0.9 | 6.1 | 0.00 | 0.00 | 0.00 | 86 | 1015.9 |
| 20260903070003 | 67 | 190 | 0.9 | 3.5 | 0.00 | 0.00 | 0.00 | 86 | 1016.1 |
| 20260903065405 | 67 | 227 | 0.9 | 3.5 | 0.00 | 0.00 | 0.00 | 86 | 1016.1 |
| 20260903064505 | 67 | 229 | 0.9 | 6.1 | 0.00 | 0.00 | 0.00 | 86 | 1016.0 |
| 20260903063603 | 67 | 227 | 0.9 | 3.5 | 0.00 | 0.00 | 0.00 | 86 | 1016.2 |
| 20260903062703 | 66 | 242 | 0.9 | 6.1 | 0.00 | 0.00 | 0.00 | 87 | 1016.1 |
| 20260903062018 | 66 | 234 | 0.9 | 6.1 | 0.00 | 0.00 | 0.00 | 87 | 1016.0 |
| 20260903060903 | 66 | 220 | 0.9 | 5.2 | 0.00 | 0.00 | 0.00 | 87 | 1015.9 |
| 20260903060003 | 66 | 248 | 0.9 | 5.2 | 0.00 | 0.00 | 0.00 | 87 | 1015.9 |
| 20260903055405 | 66 | 250 | 0.9 | 5.2 | 0.00 | 0.00 | 0.00 | 87 | 1015.8 |
| 20260903054506 | 66 | 237 | 1.7 | 6.1 | 0.00 | 0.00 | 0.00 | 88 | 1015.8 |
| 20260903053605 | 66 | 211 | 1.7 | 5.2 | 0.00 | 0.00 | 0.00 | 88 | 1015.7 |
| 20260903052703 | 66 | 203 | 1.7 | 4.3 | 0.00 | 0.00 | 0.00 | 88 | 1015.6 |
| 20260903051803 | 66 | 190 | 0.9 | 5.2 | 0.00 | 0.00 | 0.00 | 88 | 1015.6 |
| 20260903050903 | 66 | 214 | 0.9 | 4.3 | 0.00 | 0.00 | 0.00 | 88 | 1015.6 |
| 20260903050006 | 66 | 221 | 1.7 | 7.8 | 0.00 | 0.00 | 0.00 | 88 | 1015.6 |
| 20260903045405 | 66 | 222 | 0.9 | 4.3 | 0.00 | 0.00 | 0.00 | 88 | 1015.6 |
| 20260903044506 | 66 | 228 | 0.9 | 4.3 | 0.00 | 0.00 | 0.00 | 88 | 1015.4 |
| 20260903043605 | 66 | 209 | 0.9 | 6.1 | 0.00 | 0.00 | 0.00 | 88 | 1015.4 |
| 20260903042916 | 66 | 229 | 1.7 | 6.1 | 0.00 | 0.00 | 0.00 | 88 | 1015.5 |
| 20260903041805 | 66 | 170 | 0.9 | 4.3 | 0.00 | 0.00 | 0.00 | 88 | 1015.5 |
| 20260903040903 | 66 | 241 | 0.9 | 5.2 | 0.00 | 0.00 | 0.00 | 88 | 1015.4 |
| 20260903040003 | 66 | 243 | 1.7 | 7.8 | 0.00 | 0.00 | 0.00 | 88 | 1015.8 |
| 20260903035406 | 66 | 232 | 1.7 | 7.0 | 0.00 | 0.00 | 0.00 | 88 | 1015.9 |
| 20260903034503 | 66 | 233 | 0.9 | 6.1 | 0.00 | 0.00 | 0.00 | 88 | 1015.7 |
| 20260903033605 | 66 | 175 | 0.9 | 4.3 | 0.00 | 0.00 | 0.00 | 87 | 1015.5 |
| 20260903032703 | 66 | 212 | 0.9 | 7.8 | 0.00 | 0.00 | 0.00 | 87 | 1015.4 |
| 20260903032014 | 66 | 240 | 1.7 | 7.8 | 0.00 | 0.00 | 0.00 | 87 | 1015.5 |
| 20260903030905 | 66 | 199 | 1.7 | 7.0 | 0.00 | 0.00 | 0.00 | 87 | 1015.6 |
| 20260903030005 | 66 | 235 | 1.7 | 6.1 | 0.00 | 0.00 | 0.00 | 87 | 1015.5 |
| 20260903025403 | 66 | 242 | 1.7 | 7.8 | 0.00 | 0.00 | 0.00 | 87 | 1015.4 |
| 20260903024503 | 66 | 200 | 1.7 | 5.2 | 0.00 | 0.00 | 0.00 | 87 | 1015.6 |
| 20260903023815 | 66 | 205 | 1.7 | 4.3 | 0.00 | 0.00 | 0.00 | 87 | 1015.7 |
| 20260903022705 | 66 | 174 | 0.9 | 7.0 | 0.00 | 0.00 | 0.00 | 87 | 1015.5 |
| 20260903021805 | 66 | 207 | 1.7 | 6.1 | 0.00 | 0.00 | 0.00 | 87 | 1015.6 |
| 20260903020905 | 66 | 217 | 0.9 | 6.1 | 0.00 | 0.00 | 0.00 | 87 | 1015.5 |
| 20260903020215 | 66 | 157 | 0.9 | 6.1 | 0.00 | 0.00 | 0.00 | 87 | 1015.7 |
| 20260903015626 | 66 | 178 | 1.7 | 7.0 | 0.00 | 0.00 | 0.00 | 87 | 1015.6 |
| 20260903014503 | 66 | 222 | 0.9 | 4.3 | 0.00 | 0.00 | 0.00 | 87 | 1015.7 |
| 20260903013603 | 66 | 213 | 0.9 | 4.3 | 0.00 | 0.00 | 0.00 | 87 | 1015.7 |
| 20260903012706 | 66 | 213 | 0.9 | 6.1 | 0.00 | 0.00 | 0.00 | 87 | 1015.9 |
| 20260903011803 | 66 | 223 | 0.9 | 6.1 | 0.00 | 0.00 | 0.00 | 87 | 1015.9 |
| 20260903010905 | 66 | 241 | 1.7 | 7.0 | 0.00 | 0.00 | 0.00 | 87 | 1015.8 |
| 20260903010003 | 66 | 213 | 1.7 | 6.1 | 0.00 | 0.00 | 0.00 | 87 | 1015.9 |
| 20260903005403 | 66 | 229 | 0.9 | 6.1 | 0.00 | 0.00 | 0.00 | 87 | 1016.1 |
| 20260903004505 | 66 | 225 | 1.7 | 9.6 | 0.00 | 0.00 | 0.00 | 87 | 1016.3 |
| 20260903003604 | 66 | 253 | 0.9 | 9.6 | 0.00 | 0.00 | 0.00 | 87 | 1016.2 |
| 20260903002704 | 66 | 196 | 0.9 | 6.1 | 0.00 | 0.00 | 0.00 | 87 | 1016.2 |
| 20260903001805 | 66 | 240 | 0.9 | 5.2 | 0.00 | 0.00 | 0.00 | 87 | 1016.1 |
| 20260903000903 | 66 | 234 | 0.9 | 6.1 | 0.00 | 0.00 | 0.00 | 87 | 1016.2 |
| 20260903000003 | 66 | 249 | 1.7 | 5.2 | 0.00 | 0.00 | 0.00 | 87 | 1016.4 |
| 20260902235403 | 66 | 228 | 1.7 | 5.2 | 0.00 | 0.00 | 0.00 | 87 | 1016.1 |
| 20260902234503 | 66 | 246 | 1.7 | 6.1 | 0.00 | 0.00 | 0.00 | 87 | 1016.1 |
| 20260902233817 | 66 | 229 | 1.7 | 6.1 | 0.00 | 0.00 | 0.00 | 87 | 1016.1 |
| 20260902232705 | 66 | 225 | 1.7 | 7.8 | 0.00 | 0.00 | 0.00 | 87 | 1016.4 |
| 20260902231803 | 66 | 216 | 0.9 | 7.8 | 0.00 | 0.00 | 0.00 | 87 | 1016.4 |
| 20260902230905 | 66 | 213 | 0.9 | 3.5 | 0.00 | 0.00 | 0.00 | 87 | 1016.4 |
| 20260902230005 | 66 | 205 | 0.9 | 3.5 | 0.00 | 0.00 | 0.00 | 87 | 1016.5 |
| 20260902225405 | 66 | 233 | 1.7 | 7.0 | 0.00 | 0.00 | 0.00 | 87 | 1016.7 |
| 20260902224504 | 66 | 187 | 0.9 | 7.0 | 0.00 | 0.00 | 0.00 | 88 | 1016.6 |
| 20260902223606 | 66 | 214 | 0.9 | 6.1 | 0.00 | 0.00 | 0.00 | 87 | 1016.7 |
| 20260902222703 | 66 | 184 | 0.9 | 7.0 | 0.00 | 0.00 | 0.00 | 87 | 1016.6 |
| 20260902222012 | 66 | 221 | 1.7 | 7.0 | 0.00 | 0.00 | 0.00 | 87 | 1016.4 |
| 20260902220903 | 66 | 232 | 1.7 | 7.0 | 0.00 | 0.00 | 0.00 | 87 | 1016.4 |
| 20260902220003 | 66 | 238 | 1.7 | 7.0 | 0.00 | 0.00 | 0.00 | 87 | 1016.2 |
| 20260902215408 | 66 | 231 | 1.7 | 7.8 | 0.00 | 0.00 | 0.00 | 87 | 1016.2 |
| 20260902214503 | 66 | 237 | 1.7 | 7.8 | 0.00 | 0.00 | 0.00 | 87 | 1016.2 |
| 20260902213605 | 66 | 228 | 1.7 | 8.7 | 0.00 | 0.00 | 0.00 | 87 | 1016.3 |
| 20260902212916 | 67 | 214 | 1.7 | 5.2 | 0.00 | 0.00 | 0.00 | 87 | 1016.2 |
| 20260902211806 | 67 | 203 | 0.9 | 6.1 | 0.00 | 0.00 | 0.00 | 87 | 1016.3 |
| 20260902211115 | 67 | 233 | 0.9 | 7.8 | 0.00 | 0.00 | 0.00 | 87 | 1016.3 |
| 20260902210003 | 67 | 236 | 1.7 | 6.1 | 0.00 | 0.00 | 0.00 | 87 | 1016.3 |
| 20260902205403 | 67 | 223 | 1.7 | 7.8 | 0.00 | 0.00 | 0.00 | 87 | 1016.3 |
| 20260902204717 | 67 | 231 | 1.7 | 6.1 | 0.00 | 0.00 | 0.00 | 87 | 1016.3 |
| 20260902203605 | 67 | 230 | 1.7 | 7.0 | 0.00 | 0.00 | 0.00 | 87 | 1016.2 |
| 20260902202703 | 67 | 190 | 1.7 | 5.2 | 0.00 | 0.00 | 0.00 | 87 | 1016.1 |
| 20260902202019 | 67 | 215 | 1.7 | 8.7 | 0.00 | 0.00 | 0.00 | 87 | 1016.1 |
| 20260902200905 | 66 | 217 | 1.7 | 7.8 | 0.00 | 0.00 | 0.00 | 88 | 1016.4 |
| 20260902200003 | 66 | 215 | 1.7 | 5.2 | 0.00 | 0.00 | 0.00 | 88 | 1016.3 |
| 20260902195403 | 66 | 232 | 1.7 | 6.1 | 0.00 | 0.00 | 0.00 | 88 | 1016.3 |
| 20260902194507 | 66 | 221 | 1.7 | 7.8 | 0.00 | 0.00 | 0.00 | 88 | 1016.2 |
| 20260902193603 | 66 | 234 | 1.7 | 6.1 | 0.00 | 0.00 | 0.00 | 88 | 1016.4 |
| 20260902192917 | 66 | 248 | 0.9 | 6.1 | 0.00 | 0.00 | 0.00 | 88 | 1016.3 |
| 20260902191805 | 66 | 213 | 0.9 | 4.3 | 0.00 | 0.00 | 0.00 | 89 | 1016.2 |
| 20260902190903 | 66 | 185 | 0.9 | 5.2 | 0.00 | 0.00 | 0.00 | 88 | 1016.0 |
| 20260902190005 | 66 | 221 | 1.7 | 7.8 | 0.00 | 0.00 | 0.00 | 88 | 1016.0 |
| 20260902185405 | 66 | 210 | 1.7 | 7.8 | 0.00 | 0.00 | 0.00 | 88 | 1016.1 |
| 20260902184506 | 66 | 208 | 1.7 | 6.1 | 0.00 | 0.00 | 0.00 | 88 | 1016.2 |
| 20260902183603 | 66 | 174 | 1.7 | 6.1 | 0.00 | 0.00 | 0.00 | 88 | 1016.1 |
| 20260902182706 | 65 | 150 | 1.7 | 6.1 | 0.00 | 0.00 | 0.00 | 88 | 1016.3 |
| 20260902181804 | 65 | 153 | 1.7 | 5.2 | 0.00 | 0.00 | 0.00 | 88 | 1016.2 |
| 20260902181118 | 65 | 179 | 1.7 | 5.2 | 0.00 | 0.00 | 0.00 | 87 | 1016.1 |
| 20260902180005 | 65 | 142 | 1.7 | 7.8 | 0.00 | 0.00 | 0.00 | 87 | 1016.3 |
| 20260902175403 | 65 | 143 | 1.7 | 6.1 | 0.00 | 0.00 | 0.00 | 86 | 1016.3 |
| 20260902174503 | 65 | 169 | 1.7 | 5.2 | 0.00 | 0.00 | 0.00 | 86 | 1016.4 |
| 20260902173603 | 66 | 162 | 1.7 | 6.1 | 0.00 | 0.00 | 0.00 | 85 | 1016.5 |
| 20260902172705 | 66 | 167 | 2.6 | 7.0 | 0.00 | 0.00 | 0.00 | 85 | 1016.5 |
| 20260902172015 | 66 | 162 | 1.7 | 7.0 | 0.00 | 0.00 | 0.00 | 84 | 1016.5 |
| 20260902170905 | 66 | 160 | 2.6 | 7.8 | 0.00 | 0.00 | 0.00 | 82 | 1016.4 |
| 20260902170005 | 66 | 160 | 1.7 | 7.0 | 0.00 | 0.00 | 0.00 | 81 | 1016.5 |
| 20260902165403 | 66 | 165 | 3.5 | 11.3 | 0.00 | 0.00 | 0.00 | 81 | 1016.5 |
| 20260902164505 | 67 | 152 | 3.5 | 10.4 | 0.00 | 0.00 | 0.00 | 80 | 1016.7 |
| 20260902163605 | 67 | 151 | 2.6 | 8.7 | 0.00 | 0.00 | 0.00 | 78 | 1016.8 |
| 20260902162705 | 68 | 204 | 2.6 | 11.3 | 0.00 | 0.00 | 0.00 | 77 | 1016.9 |
| 20260902162016 | 68 | 201 | 2.6 | 11.3 | 0.00 | 0.00 | 0.00 | 76 | 1016.9 |
| 20260902160903 | 68 | 157 | 3.5 | 9.6 | 0.00 | 0.00 | 0.00 | 75 | 1016.9 |
| 20260902160007 | 68 | 192 | 2.6 | 10.4 | 0.00 | 0.00 | 0.00 | 73 | 1016.9 |
| 20260902155404 | 68 | 184 | 3.5 | 10.4 | 0.00 | 0.00 | 0.00 | 73 | 1017.1 |
| 20260902154507 | 69 | 150 | 3.5 | 8.7 | 0.00 | 0.00 | 0.00 | 71 | 1017.1 |
| 20260902153817 | 69 | 161 | 3.5 | 8.7 | 0.00 | 0.00 | 0.00 | 70 | 1017.0 |
| 20260902152705 | 70 | 223 | 2.6 | 8.7 | 0.00 | 0.00 | 0.00 | 69 | 1017.2 |
| 20260902151803 | 70 | 185 | 3.5 | 11.3 | 0.00 | 0.00 | 0.00 | 68 | 1017.2 |
| 20260902150903 | 69 | 157 | 2.6 | 7.0 | 0.00 | 0.00 | 0.00 | 69 | 1017.2 |
| 20260902150005 | 69 | 182 | 1.7 | 7.0 | 0.00 | 0.00 | 0.00 | 69 | 1017.3 |
| 20260902145405 | 69 | 214 | 1.7 | 7.0 | 0.00 | 0.00 | 0.00 | 69 | 1017.5 |
| 20260902144715 | 69 | 166 | 1.7 | 9.6 | 0.00 | 0.00 | 0.00 | 69 | 1017.6 |
| 20260902143818 | 69 | 207 | 2.6 | 7.8 | 0.00 | 0.00 | 0.00 | 69 | 1017.5 |
| 20260902142705 | 69 | 183 | 2.6 | 10.4 | 0.00 | 0.00 | 0.00 | 69 | 1017.7 |
| 20260902141805 | 69 | 203 | 1.7 | 6.1 | 0.00 | 0.00 | 0.00 | 69 | 1017.8 |
| 20260902140903 | 69 | 179 | 2.6 | 8.7 | 0.00 | 0.00 | 0.00 | 69 | 1017.8 |
| 20260902140005 | 68 | 212 | 2.6 | 7.8 | 0.00 | 0.00 | 0.00 | 69 | 1017.7 |
| 20260902135614 | 68 | 210 | 2.6 | 7.8 | 0.00 | 0.00 | 0.00 | 69 | 1017.9 |
| 20260902134505 | 68 | 177 | 2.6 | 10.4 | 0.00 | 0.00 | 0.00 | 68 | 1017.9 |
| 20260902133813 | 68 | 151 | 2.6 | 7.0 | 0.00 | 0.00 | 0.00 | 69 | 1018.0 |
| 20260902132704 | 68 | 255 | 2.6 | 9.6 | 0.00 | 0.00 | 0.00 | 69 | 1018.1 |
| 20260902132018 | 68 | 185 | 2.6 | 9.6 | 0.00 | 0.00 | 0.00 | 69 | 1018.1 |
| 20260902131115 | 68 | 158 | 2.6 | 8.7 | 0.00 | 0.00 | 0.00 | 70 | 1018.2 |
| 20260902130003 | 69 | 143 | 2.6 | 9.6 | 0.00 | 0.00 | 0.00 | 71 | 1018.0 |
| 20260902125405 | 69 | 153 | 2.6 | 9.6 | 0.00 | 0.00 | 0.00 | 72 | 1018.1 |
| 20260902124503 | 68 | 178 | 2.6 | 9.6 | 0.00 | 0.00 | 0.00 | 72 | 1018.2 |
| 20260902123603 | 68 | 183 | 3.5 | 12.2 | 0.00 | 0.00 | 0.00 | 73 | 1018.2 |
| 20260902122916 | 69 | 186 | 3.5 | 12.2 | 0.00 | 0.00 | 0.00 | 73 | 1018.3 |